Weather History for Ornskoldsvik, Sweden

Change the Weather History Date:

Tuesday, May 21, 2013

  Actual Average Record
Temperature  
Mean Temperature 60 °F -  
Max Temperature 69 °F - - ()
Min Temperature 51 °F - - ()
Degree Days  
Heating Degree Days 5    
Growing Degree Days 10 (Base 50)    
Moisture  
Dew Point 47 °F    
Average Humidity 62    
Maximum Humidity 82    
Minimum Humidity 40    
Precipitation  
Precipitation 0.00 in - - ()
Sea Level Pressure  
Sea Level Pressure 29.88 in    
Wind  
Wind Speed 5 mph ()    
Max Wind Speed 13 mph    
Max Gust Speed -    
Visibility 6.2 miles    
Events      
T = Trace of Precipitation, MM = Missing Value Source: Averaged Metar Reports

Daily Weather History Graph

Daily Weather History Graph

Search for Another Location

Airport:

Trip Planner

Search our weather history database for the weather conditions in past years. The results will help you decide how hot, cold, wet, or windy it might be!

Date:

Astronomy

May. 21, 2013 Rise Set
Actual Time 3:19 AM CEST 10:04 PM CEST
Civil Twilight 1:23 AM CEST 12:09 AM CEST
Nautical Twilight Sun does not rise Sun does not rise
Astronomical Twilight Sun does not rise Sun does not rise
Moon 4:29 PM CEST (5/21) 2:17 AM CEST (5/21)
Length of Visible Light 22h 45m
Length of Day
18h 44m
Waxing Gibbous, 81% of the Moon is Illuminated
May 21
Waxing Gibbous
May 25
Full
May 31
Last Quarter
Jun 8
New
Jun 16
First Quarter

Hourly Weather History & Observations

Time (CEST) Temp. Dew Point Humidity Pressure Visibility Wind Dir Wind Speed Gust Speed Precip Events Conditions
12:20 AM 53.6 °F 44.6 °F 72% 29.98 in 6.2 mi East 4.6 mph - N/A   Overcast
12:50 AM 53.6 °F 44.6 °F 72% 29.98 in 6.2 mi East 3.5 mph - N/A   Overcast
1:20 AM 51.8 °F 44.6 °F 76% 29.98 in 6.2 mi East 3.5 mph - N/A   Overcast
1:50 AM 51.8 °F 44.6 °F 76% 29.98 in 6.2 mi East 3.5 mph - N/A   Overcast
2:20 AM 51.8 °F 46.4 °F 82% 29.98 in 6.2 mi East 3.5 mph - N/A   Overcast
2:50 AM 51.8 °F 46.4 °F 82% 29.98 in 6.2 mi East 3.5 mph - N/A   Overcast
3:20 AM 51.8 °F 46.4 °F 82% 29.95 in 6.2 mi Variable 2.3 mph - N/A   Overcast
3:50 AM 51.8 °F 46.4 °F 82% 29.95 in 6.2 mi Variable 2.3 mph - N/A   Overcast
4:20 AM 53.6 °F 46.4 °F 77% 29.95 in 6.2 mi NE 3.5 mph - N/A   Overcast
4:50 AM 53.6 °F 46.4 °F 77% 29.95 in 6.2 mi Variable 2.3 mph - N/A   Overcast
5:20 AM 53.6 °F 46.4 °F 77% 29.95 in 6.2 mi ENE 3.5 mph - N/A   Overcast
5:50 AM 53.6 °F 46.4 °F 77% 29.92 in 6.2 mi Variable 2.3 mph - N/A   Mostly Cloudy
6:20 AM 53.6 °F 46.4 °F 77% 29.92 in 6.2 mi Variable 2.3 mph - N/A   Mostly Cloudy
6:50 AM 53.6 °F 46.4 °F 77% 29.92 in 6.2 mi ENE 3.5 mph - N/A   Mostly Cloudy
7:20 AM 53.6 °F 48.2 °F 82% 29.92 in 6.2 mi ENE 3.5 mph - N/A   Mostly Cloudy
7:50 AM 53.6 °F 48.2 °F 82% 29.92 in 6.2 mi ENE 4.6 mph - N/A   Mostly Cloudy
8:50 AM 55.4 °F 48.2 °F 77% 29.92 in 6.2 mi East 5.8 mph - N/A   Mostly Cloudy
9:20 AM 59.0 °F 48.2 °F 67% 29.92 in - ESE 8.1 mph - N/A   Clear
9:50 AM 59.0 °F 50.0 °F 72% 29.92 in - ESE 9.2 mph - N/A   Clear
10:20 AM 60.8 °F 50.0 °F 68% 29.92 in - SE 10.4 mph - N/A   Clear
10:50 AM 60.8 °F 50.0 °F 68% 29.92 in 6.2 mi SE 6.9 mph - N/A   Partly Cloudy
11:20 AM 62.6 °F 50.0 °F 63% 29.89 in 6.2 mi ESE 9.2 mph - N/A   Scattered Clouds
11:50 AM 62.6 °F 50.0 °F 63% 29.89 in 6.2 mi ESE 8.1 mph - N/A   Scattered Clouds
12:20 PM 64.4 °F 50.0 °F 59% 29.89 in 6.2 mi ESE 9.2 mph - N/A   Partly Cloudy
12:50 PM 66.2 °F 50.0 °F 56% 29.89 in - ESE 10.4 mph - N/A   Clear
1:20 PM 66.2 °F 46.4 °F 49% 29.89 in - ESE 10.4 mph - N/A   Clear
1:50 PM 68.0 °F 46.4 °F 46% 29.89 in - ESE 11.5 mph - N/A   Clear
2:20 PM 66.2 °F 46.4 °F 49% 29.86 in - ESE 9.2 mph - N/A   Clear
2:50 PM 68.0 °F 48.2 °F 49% 29.86 in - East 10.4 mph - N/A   Clear
3:20 PM 68.0 °F 46.4 °F 46% 29.86 in - East 10.4 mph - N/A   Clear
3:50 PM 68.0 °F 48.2 °F 49% 29.86 in - East 9.2 mph - N/A   Clear
4:20 PM 68.0 °F 46.4 °F 46% 29.83 in - East 10.4 mph - N/A   Clear
4:50 PM 69.8 °F 44.6 °F 40% 29.83 in - East 9.2 mph - N/A   Clear
5:20 PM 68.0 °F 44.6 °F 43% 29.83 in - East 10.4 mph - N/A   Clear
5:50 PM 68.0 °F 44.6 °F 43% 29.80 in - East 11.5 mph - N/A   Clear
6:20 PM 68.0 °F 44.6 °F 43% 29.80 in - East 9.2 mph - N/A   Clear
6:50 PM 66.2 °F 44.6 °F 46% 29.80 in - East 12.7 mph - N/A   Clear
7:20 PM 66.2 °F 44.6 °F 46% 29.80 in - East 10.4 mph - N/A   Clear
7:50 PM 66.2 °F 44.6 °F 46% 29.80 in - East 8.1 mph - N/A   Clear
8:20 PM 64.4 °F 46.4 °F 52% 29.80 in - East 5.8 mph - N/A   Clear
8:50 PM 64.4 °F 46.4 °F 52% 29.80 in - East 4.6 mph - N/A   Clear
9:20 PM 62.6 °F 46.4 °F 55% 29.80 in - ENE 5.8 mph - N/A   Clear
9:50 PM 62.6 °F 44.6 °F 52% 29.80 in - East 6.9 mph - N/A   Clear
10:20 PM 60.8 °F 44.6 °F 55% 29.80 in 6.2 mi East 4.6 mph - N/A   Overcast
10:50 PM 60.8 °F 44.6 °F 55% 29.80 in 6.2 mi East 5.8 mph - N/A   Mostly Cloudy
11:20 PM 60.8 °F 44.6 °F 55% 29.77 in 6.2 mi East 4.6 mph - N/A   Overcast
11:50 PM 59.0 °F 44.6 °F 59% 29.77 in 6.2 mi NNE 3.5 mph - N/A   Mostly Cloudy